Weather Roundup
Issued by NWS Chicago, IL

Home | Current Version | Previous Version | Text Only | Print | Product List | Glossary On
Versions: 1 2 3 4 5 6 7 8 9 10 11 12 13 14 15 16 17 18 19 20 21 22 23 24 25 26 27 28 29 30 31 32 33 34 35 36 37 38 39 40 41 42 43 44 45 46 47 48 49 50
000
NZUS59 KLOT 210912
HRRLOT

CHICAGO AREA WEATHER ROUNDUP
NATIONAL WEATHER SERVICE CHICAGO/ROMEOVILLE IL
300 AM CST SAT JAN 21 2017

NOTE: "FAIR" INDICATES FEW OR NO CLOUDS BELOW 12,000 FEET WITH NO
SIGNIFICANT WEATHER AND/OR OBSTRUCTIONS TO VISIBILITY.

* THESE STATIONS ARE NOT UNDER NWS QUALITY CONTROL. THEY ALSO MAY NOT
  REPORT WEATHER SUCH AS PRECIPITATION OR FOG.

ILZ005-006-012>014-019>023-211000-
NORTHEAST ILLINOIS

CITY           SKY/WX    TMP DP  RH WIND       PRES   REMARKS
OHARE          CLOUDY    45  45 100 SE7       29.56F FOG
MIDWAY         CLOUDY    47  46  97 SE5       29.58F FOG
AURORA         CLOUDY    47  46  97 SE12      29.55F FOG
LANSING*       CLOUDY    47  47 100 S8        29.60F FOG
JOLIET*        PTCLDY    47  47 100 SE5       29.57F FOG
WAUKEGAN       FOG       39  39 100 E5        29.57F VSB 1/4
DUPAGE AIRPORT CLOUDY    47  45  93 SE8       29.55F FOG
WHEELING       CLOUDY    42  41  96 CALM      29.58F FOG
KANKAKEE*      MOCLDY    50  49  97 CALM      29.59F
MORRIS*        FOG       45  44  98 S8        29.55F VSB 3/4
LEWIS AIRPORT* PTCLDY    46  46 100 S10       29.57F FOG
NORTHERLY ISL    N/A     39  38  96 CALM        N/A
$$

WIZ051-052-058>065-066-070>072-211000-
SOUTHEAST WISCONSIN

CITY           SKY/WX    TMP DP  RH WIND       PRES   REMARKS
MILWAUKEE      FOG       39  38  96 E5        29.59F VSB 1/8
KENOSHA*       FOG       38  38 100 E7        29.58F VSB 1/4
RACINE*        FOG       39  38  96 E5        29.60F VSB 1/4
WAUKESHA       FOG       34  34 100 E3        29.59F VSB 1/2
WEST BEND      DRZL/FOG  34  34 100 CALM      29.59F VSB 1/2
$$

INZ001>003-010>013-019-020-211000-
NORTHWEST INDIANA

CITY           SKY/WX    TMP DP  RH WIND       PRES   REMARKS
GARY*          CLOUDY    50  48  93 SE7       29.60F FOG
MICHIGAN CITY* NOT AVBL
RENSSELAER*    NOT AVBL
VALPARAISO     PTCLDY    48  47  96 S5        29.63R FOG
$$

LMZ740>746-211000-
SOUTHERN LAKE MICHIGAN

STATION/POSITION TIME  SKY/WX   TEMP WIND        PRES    VSBY
                                AIR  DIR/SP/G
                 (UTC)          (F)  (DEG/KT/KT) (MB)    (MI)
HARRISON CRIB    0840            48  160/ 10/ 11   N/A
BURNHAM HARBOR   0900            40   CALM  /  2   N/A
CALUMET HARBOR   0848            49  170/  6/  9 1001.6F
BURNS HARBOR     0840            51  170/ 12/ 15 1003.4F
MICHIGAN CITY    0840            50  140/ 10/ 13   N/A
$$

ABBREVIATIONS USED IN REMARKS
   TC - TEMPERATURE IN CELSIUS
  WCI - WIND CHILL INDEX
   HX - HEAT INDEX
  VSB - VISIBILITY
$$



USA.gov is the U.S. government's official web portal to all federal, state and local government web resources and services.